Location: Peebles
(55.6412°N, 3.1714°W)
Time: 05:52:53
(UTC+01:00)

deb NNS O-4 - Pass Details

Date: 05 July 2022
Orbit: 977 x 1074 km, 89.9° (Epoch: 16 August)

Event Time Altitude Azimuth Distance (km) Brightness Sun altitude
Rises 23:54:21 0° 105° (ESE) 3,860 ? -9.6°
Reaches altitude 10° 23:58:38 10° 78° (ENE) 2,898 ? -9.8°
Maximum altitude 00:01:14 13° 55° (NE) 2,697 ? -9.9°
Drops below altitude 10° 00:03:49 10° 32° (NNE) 2,883 ? -10.0°
Sets 00:08:02 0° 5° (N) 3,821 ? -10.2°
